Regional Weather Roundup
Issued by NWS Sterling, VA

Home | Current Version | Previous Version | Text Only | Print | Product List | Glossary On
Versions: 1 2 3 4 5 6 7 8 9 10 11 12 13 14 15 16 17 18 19 20 21 22 23 24 25 26 27 28 29 30 31 32 33 34 35 36 37 38 39 40 41 42 43 44 45 46 47 48 49 50
000
ASUS41 KLWX 270810
RWRLWX

REGIONAL WEATHER ROUNDUP
NATIONAL WEATHER SERVICE BALTIMORE MD/WASHINGTON DC
300 AM EST TUE JAN 27 2015

Note: "FAIR" indicates few or no clouds below 12,000 feet
with no significant weather and/or obstructions to visibility.
 TC=TEMPERATURE CELSIUS

 * =Non NWS site. Station does not report precipitation (e.g. rain,
    snow, etc.), thunder, or fog.

DCZ001-MDZ009-015-VAZ040>042-051-053>054-270900-
WASHINGTON METRO

CITY           SKY/WX    TMP DP  RH WIND       PRES   REMARKS
WASHINGTON NAT LGT SNOW  30  24  78 N15       29.75S WCI  19
DULLES         CLOUDY    27  22  81 N12       29.75S WCI  17
ANDREWS AFB    MIX PCPN  27  24  87 NW16      29.72F WCI  15
FT BELVOIR     MIX PCPN  28  24  83 NW6       29.75F
QUANTICO       LGT RAIN  30  23  75 N15G24    29.76S WCI  19
COLLEGE PARK*  CLOUDY    30  27  86 NW7G16    29.74F
LEESBURG*      CLOUDY    28  28 100 N10G16    29.76F WCI  19
MANASSAS*      CLOUDY    28  27  93 N9        29.75F WCI  20
GAITHERSBURG*  CLOUDY    27  21  80 NW8       29.77S WCI  18

$$

MDZ006>007-011-014-270900-
BALTIMORE METRO

CITY           SKY/WX    TMP DP  RH WIND       PRES   REMARKS
BWI AIRPORT    FLURRIES  27  22  81 NW8       29.73S WCI  19
MD SCIENCE CTR   N/A     27  21  78 MISG      29.74S
MARTIN STATE   CLOUDY    30  25  80 NW10      29.74F WCI  21
ANNAPOLIS      CLOUDY    28  24  85 NW15      29.72S WCI  16
FORT MEADE*    CLOUDY    28  25  86 NE7G16    29.76S

$$

MDZ012-015-019>023-270900-
MARYLAND EASTERN SHORE

CITY           SKY/WX    TMP DP  RH WIND       PRES   REMARKS
OCEAN CITY     CLOUDY    30  27  88 N15G22    29.63R WCI  19
SALISBURY      FLURRIES  31  26  82 N13       29.65S WCI  21
BAY BRIDGE AP* FLURRIES  30  23  74 N15G25    29.72S WCI  19
CAMBRIDGE*     MOCLDY    32  27  80 CALM      29.69R
EASTON*        CLOUDY    30  26  87 N12       29.73S WCI  20

$$

MDZ017>025-270900-
SOUTHERN MARYLAND

CITY           SKY/WX    TMP DP  RH WIND       PRES   REMARKS
PATUXENT RIVER CLOUDY    28  23  81 NW20      29.70S WCI  15
ST INIGOES     LGT SNOW  29  22  75 NW9       29.70R WCI  20
LEONARDTOWN*   CLOUDY    28  23  80 NW6       29.72S

$$

MDZ003>005-270900-
NORTH CENTRAL MARYLAND

CITY           SKY/WX    TMP DP  RH WIND       PRES   REMARKS
FREDERICK*     CLOUDY    30  23  74 CALM      29.79F
HAGERSTOWN APT CLOUDY    26  20  77 NW6       29.76S
WESTMINSTER*   LGT SNOW  25  23  93 N8        29.72F WCI  16

$$

MDZ501>502-270900-
WESTERN MARYLAND

CITY           SKY/WX    TMP DP  RH WIND       PRES   REMARKS
OAKLAND*       FOG       18 N/A N/A W5        29.67S VSB 1/4
CUMBERLAND*    MOCLDY    28  23  80 CALM      29.84R

$$

VAZ025>031-270900-
SHENANDOAH VALLEY

CITY           SKY/WX    TMP DP  RH WIND       PRES   REMARKS
WINCHESTER*    CLOUDY    28  23  80 NW6       29.76F
FRONT ROYAL*   CLOUDY    27  23  86 CALM      29.76S
LURAY*         CLOUDY    28  28 100 CALM      29.75F
NEW MARKET*    CLOUDY    27  26  94 NE3       29.74S
STAUNTON*      LGT SNOW  28  26  89 CALM      29.74S
WAYNESBORO*    CLOUDY    27  26  94 N5        29.71S

$$

WVZ021-048>050-054>055-270900-
EASTERN WEST VIRGINIA PANHANDLE

CITY           SKY/WX    TMP DP  RH WIND       PRES   REMARKS
MARTINSBURG    CLOUDY    28  20  71 N6        29.78S
PETERSBURG*    CLOUDY    29  26  87 CALM      29.78R

$$

VAZ036>039-050-270900-
CENTRAL FOOTHILLS

CITY           SKY/WX    TMP DP  RH WIND       PRES   REMARKS
CHARLOTTESVILL CLOUDY    32  24  72 NW6       29.71S
CULPEPER*      MOCLDY    30  25  80 N9        29.74F WCI  22
ORANGE*        MOCLDY    30  27  86 N5        29.74S
GORDONSVILLE*  CLOUDY    28  24  83 CALM      29.72S
WARRENTON*     CLOUDY    30  28  92 N7        29.74S

$$

VAZ055>057-270900-
NORTH AND CENTRAL PIEDMONT

CITY           SKY/WX    TMP DP  RH WIND       PRES   REMARKS
FREDERICKSBRG* FLURRIES  30  28  89 N7        29.74R
STAFFORD*      CLOUDY    28  28  99 CALM      29.78S

$$

NCZ024-NYZ072-PAZ021-071-VAZ022-071-270900-
OTHER REGIONAL OBSERVATIONS

CITY           SKY/WX    TMP DP  RH WIND       PRES   REMARKS
NEW YORK CITY  LGT SNOW  22  17  81 NE8G18    29.69S VSB 3/4 WCI  12
PHILADELPHIA   LGT SNOW  26  19  74 N14       29.72R WCI  14
PITTSBURGH     FLURRIES  19  16  88 W8        29.84R WCI   9
ROANOKE        PTCLDY    28  16  60 NW13      29.77R WCI  17
RICHMOND       CLOUDY    32  27  81 N14G22    29.71S WCI  22
RALEIGH        LGT SNOW  34  30  85 NW7       29.72R FOG

$$

ANZ530>537-270900-
MARINE OBSERVATIONS

STATION/POSITION TIME  TEMP    WIND        PRES
                       AIR SEA DIR/SP/G
                 (UTC) (F)     (DEG/KT/KT) (MB)
THOMAS PT LIGHT  0800   28 36  340/ 16/ 17 1007.2R
BALT KEY BRIDGE  0800   28     330/ 13/ 14 1006.8S
COVE POINT       0800   27     350/ 23/ 26 1005.5S
LEWISETTA        0800   29 38  340/ 15/ 23 1005.7S
SOLOMONS ISLAND  0800      39                N/A
PINEY POINT      0800          350/ 19/ 21   N/A

$$



USA.gov is the U.S. government's official web portal to all federal, state and local government web resources and services.